Погода в Батурине

Россия / Томская область     57°45′14″N   85°10′40″E
темп.,
°C
ветер,
м/с
пор.,
м/с
влажн.,
%
обл.,
%
осадки,
мм/ч
давл.,
гПа
погр.,
м
26 февраля, пт
пт2601:00−22юз4992100 0.3 1018926
04:00−23юз3994100 0.1 1019727
07:00−24юз289699 0.1 1020341
10:00−23юз489298 0.1 1021687
13:00−22юз468599 0.1 1023984
16:00−21зюз4683100 0.1 10251030
19:00−24зюз3893100 0.1 1028352
22:00−26юз3996100 0.0 1030353
27 февраля, сб
сб2701:00−26зюз3895100 0.1 1031517
04:00−26юз3795100 0.1 1031458
07:00−27юз3895100 0.1 1032440
10:00−27юз3794100 0.1 1033419
13:00−25зюз3689100 0.1 1034675
16:00−23зюз3688100 0.0 1034713
19:00−26юз2396100 0.1 103550
22:00−28юз259899 0.0 1035121
28 февраля, вс
вс2801:00−29юз279895 0.0 1036163
04:00−31юз239866 0.0 103755
07:00−32юз239848 0.0 103741
10:00−30юз24958 0.0 1038183
13:00−23ююз238723 0.0 1037388
16:00−19ю2385100 0.0 1036513
19:00−23юв229697 0.0 103420
22:00−24вюв259882 0.0 1033109
1 марта, пн
пн101:00−23вюв389691 0.0 1030203
04:00−22вюв41096100 0.0 1027271
07:00−20вюв41196100 0.1 1024354
10:00−17вюв51095100 0.2 1020414
13:00−14в51093100 0.4 1017461
16:00−12в5992100 0.4 1014512
19:00−13в41094100 0.7 1012451
22:00−14всв399497 0.2 1011397
2 марта, вт
вт201:00−15всв379698 0.3 1012303
04:00−16всв2596100 0.1 1011212
07:00−17в2497100 0.3 1011121
10:00−15в2395100 0.2 1011191
13:00−12в1290100 0.3 1010357
16:00−10всв1189100 0.3 1010383
19:00−12с1296100 0.3 101021
22:00−14ссв129799 0.1 101120